Météo par heure à Juliopol

Ce jour, 16 Juin, Mercredi

Heure Température Précipitation Vent Pression Humidité
00:00 +18°C° 0 mm 1 m/s 749 mmHg 80%
01:00 +16°C° 0 mm 2 m/s 749 mmHg 82%
02:00 +16°C° 0 mm 1 m/s 749 mmHg 83%
03:00 +16°C° 0 mm 1 m/s 749 mmHg 86%
04:00 +15°C° 0 mm 2 m/s 749 mmHg 89%
05:00 +15°C° 0 mm 2 m/s 749 mmHg 93%
06:00 +16°C° 0 mm 2 m/s 749 mmHg 89%
07:00 +17°C° 0 mm 3 m/s 749 mmHg 86%
08:00 +19°C° 0 mm 3 m/s 750 mmHg 82%
09:00 +20°C° 0 mm 2 m/s 750 mmHg 78%
10:00 +21°C° 0 mm 2 m/s 750 mmHg 74%
11:00 +23°C° 0 mm 2 m/s 750 mmHg 70%
12:00 +24°C° 0.2 mm 2 m/s 750 mmHg 68%
13:00 +24°C° 0.2 mm 3 m/s 750 mmHg 65%
14:00 +24°C° 0 mm 3 m/s 750 mmHg 67%
15:00 +24°C° 0.1 mm 3 m/s 750 mmHg 67%
16:00 +24°C° 0.1 mm 3 m/s 750 mmHg 67%
17:00 +24°C° 0.1 mm 3 m/s 750 mmHg 67%
18:00 +22°C° 0 mm 3 m/s 750 mmHg 71%
19:00 +21°C° 0 mm 3 m/s 750 mmHg 75%
20:00 +20°C° 0 mm 2 m/s 750 mmHg 79%
21:00 +18°C° 0 mm 2 m/s 750 mmHg 80%
22:00 +17°C° 0 mm 2 m/s 751 mmHg 81%
23:00 +15°C° 0 mm 2 m/s 751 mmHg 81%

Demain, 17 Juin, Jeudi

Heure Température Précipitation Vent Pression Humidité
00:00 +15°C° 0 mm 2 m/s 751 mmHg 83%
01:00 +14°C° 0 mm 2 m/s 751 mmHg 84%
02:00 +14°C° 0 mm 2 m/s 751 mmHg 85%
03:00 +13°C° 0 mm 2 m/s 751 mmHg 86%
04:00 +13°C° 0 mm 2 m/s 751 mmHg 86%
05:00 +13°C° 0 mm 2 m/s 751 mmHg 86%
06:00 +15°C° 0 mm 2 m/s 752 mmHg 81%
07:00 +17°C° 0 mm 2 m/s 752 mmHg 76%
08:00 +19°C° 0 mm 2 m/s 752 mmHg 70%
09:00 +20°C° 0 mm 3 m/s 752 mmHg 64%
10:00 +21°C° 0 mm 3 m/s 753 mmHg 59%
11:00 +24°C° 0 mm 3 m/s 753 mmHg 53%
12:00 +25°C° 0 mm 3 m/s 753 mmHg 50%
13:00 +25°C° 0 mm 3 m/s 752 mmHg 48%
14:00 +26°C° 0 mm 2 m/s 752 mmHg 45%
15:00 +26°C° 0 mm 2 m/s 752 mmHg 47%
16:00 +26°C° 0 mm 3 m/s 752 mmHg 48%
17:00 +26°C° 0 mm 3 m/s 752 mmHg 50%
18:00 +25°C° 0 mm 2 m/s 752 mmHg 57%
19:00 +23°C° 0 mm 2 m/s 752 mmHg 64%
20:00 +21°C° 0 mm 2 m/s 752 mmHg 72%
21:00 +20°C° 0 mm 2 m/s 752 mmHg 76%
22:00 +19°C° 0 mm 2 m/s 752 mmHg 80%
23:00 +18°C° 0 mm 2 m/s 753 mmHg 84%

Après-demain, 18 Juin, Vendredi

Heure Température Précipitation Vent Pression Humidité
00:00 +17°C° 0 mm 2 m/s 752 mmHg 86%
01:00 +17°C° 0 mm 2 m/s 752 mmHg 89%
02:00 +17°C° 0 mm 2 m/s 752 mmHg 92%
03:00 +17°C° 0 mm 2 m/s 752 mmHg 92%
04:00 +17°C° 0 mm 3 m/s 752 mmHg 93%
05:00 +16°C° 0 mm 3 m/s 752 mmHg 93%
06:00 +18°C° 0 mm 3 m/s 752 mmHg 87%
07:00 +20°C° 0 mm 3 m/s 752 mmHg 81%
08:00 +22°C° 0 mm 4 m/s 752 mmHg 75%
09:00 +23°C° 0 mm 4 m/s 752 mmHg 70%
10:00 +26°C° 0 mm 4 m/s 752 mmHg 65%
11:00 +27°C° 0 mm 5 m/s 752 mmHg 60%
12:00 +27°C° 0 mm 5 m/s 752 mmHg 58%
13:00 +28°C° 0 mm 4 m/s 752 mmHg 55%
14:00 +28°C° 0 mm 4 m/s 752 mmHg 53%
15:00 +28°C° 0 mm 4 m/s 751 mmHg 54%
16:00 +28°C° 0 mm 4 m/s 751 mmHg 56%
17:00 +28°C° 0 mm 4 m/s 751 mmHg 58%
18:00 +27°C° 0 mm 3 m/s 751 mmHg 65%
19:00 +25°C° 0 mm 3 m/s 751 mmHg 72%
20:00 +24°C° 0 mm 3 m/s 751 mmHg 79%
21:00 +21°C° 0 mm 3 m/s 751 mmHg 82%
22:00 +20°C° 0 mm 3 m/s 751 mmHg 85%
23:00 +19°C° 0 mm 3 m/s 751 mmHg 87%

19 Juin, Samedi

Heure Température Précipitation Vent Pression Humidité
00:00 +18°C° 0 mm 3 m/s 751 mmHg 89%
01:00 +18°C° 0 mm 3 m/s 751 mmHg 91%
02:00 +18°C° 0 mm 3 m/s 751 mmHg 93%
03:00 +18°C° 0 mm 3 m/s 751 mmHg 93%
04:00 +18°C° 0 mm 3 m/s 751 mmHg 94%
05:00 +18°C° 0 mm 3 m/s 751 mmHg 95%
06:00 +19°C° 0 mm 3 m/s 751 mmHg 89%
07:00 +21°C° 0 mm 4 m/s 751 mmHg 83%
08:00 +23°C° 0 mm 4 m/s 751 mmHg 77%
09:00 +25°C° 0 mm 5 m/s 751 mmHg 73%
10:00 +26°C° 0 mm 5 m/s 751 mmHg 68%
11:00 +27°C° 0 mm 5 m/s 750 mmHg 64%
12:00 +28°C° 0 mm 5 m/s 750 mmHg 61%
13:00 +29°C° 0 mm 5 m/s 750 mmHg 58%
14:00 +29°C° 0 mm 5 m/s 750 mmHg 56%
15:00 +29°C° 0 mm 5 m/s 750 mmHg 59%
16:00 +28°C° 0 mm 5 m/s 750 mmHg 62%
17:00 +28°C° 0 mm 5 m/s 750 mmHg 65%
18:00 +27°C° 0 mm 4 m/s 749 mmHg 70%
19:00 +25°C° 0 mm 3 m/s 749 mmHg 75%
20:00 +24°C° 0 mm 2 m/s 749 mmHg 80%
21:00 +22°C° 0 mm 3 m/s 749 mmHg 84%
22:00 +21°C° 0 mm 3 m/s 749 mmHg 87%
23:00 +19°C° 0 mm 3 m/s 749 mmHg 90%

20 Juin, Dimanche

Heure Température Précipitation Vent Pression Humidité
00:00 +19°C° 0 mm 3 m/s 749 mmHg 92%
01:00 +18°C° 0 mm 3 m/s 749 mmHg 93%
02:00 +18°C° 0 mm 2 m/s 749 mmHg 94%
03:00 +17°C° 0 mm 2 m/s 749 mmHg 95%
04:00 +17°C° 0 mm 2 m/s 749 mmHg 95%
05:00 +17°C° 0 mm 2 m/s 749 mmHg 96%
06:00 +19°C° 0 mm 3 m/s 749 mmHg 90%
07:00 +20°C° 0 mm 4 m/s 749 mmHg 84%
08:00 +22°C° 0 mm 4 m/s 749 mmHg 78%
09:00 +23°C° 0 mm 4 m/s 749 mmHg 73%
10:00 +25°C° 0 mm 4 m/s 749 mmHg 67%
11:00 +27°C° 0 mm 5 m/s 749 mmHg 62%
12:00 +27°C° 0 mm 4 m/s 749 mmHg 59%
13:00 +28°C° 0 mm 4 m/s 748 mmHg 56%
14:00 +29°C° 0 mm 4 m/s 748 mmHg 53%
15:00 +29°C° 0 mm 4 m/s 748 mmHg 54%
16:00 +29°C° 0 mm 4 m/s 748 mmHg 54%
17:00 +29°C° 0 mm 3 m/s 748 mmHg 55%
18:00 +27°C° 0 mm 3 m/s 747 mmHg 62%
19:00 +26°C° 0 mm 3 m/s 747 mmHg 68%
20:00 +25°C° 0 mm 2 m/s 747 mmHg 75%
21:00 +24°C° 0 mm 3 m/s 747 mmHg 79%
22:00 +21°C° 0 mm 3 m/s 747 mmHg 82%
23:00 +20°C° 0 mm 3 m/s 747 mmHg 86%

21 Juin, Lundi

Heure Température Précipitation Vent Pression Humidité
00:00 +20°C° 0 mm 3 m/s 747 mmHg 88%
01:00 +19°C° 0 mm 3 m/s 747 mmHg 91%
02:00 +19°C° 0 mm 3 m/s 747 mmHg 94%
03:00 +19°C° 0 mm 3 m/s 747 mmHg 94%
04:00 +18°C° 0 mm 3 m/s 747 mmHg 95%
05:00 +18°C° 0 mm 3 m/s 747 mmHg 95%
06:00 +20°C° 0 mm 3 m/s 747 mmHg 88%
07:00 +22°C° 0 mm 4 m/s 747 mmHg 81%
08:00 +25°C° 0 mm 4 m/s 747 mmHg 74%
09:00 +26°C° 0 mm 5 m/s 747 mmHg 69%
10:00 +27°C° 0 mm 5 m/s 747 mmHg 64%
11:00 +28°C° 0 mm 5 m/s 747 mmHg 59%
12:00 +29°C° 0 mm 5 m/s 746 mmHg 56%
13:00 +29°C° 0 mm 4 m/s 746 mmHg 53%
14:00 +30°C° 0 mm 4 m/s 746 mmHg 50%
15:00 +30°C° 0 mm 4 m/s 746 mmHg 51%
16:00 +30°C° 0 mm 4 m/s 746 mmHg 52%
17:00 +30°C° 0 mm 3 m/s 745 mmHg 52%
18:00 +28°C° 0 mm 3 m/s 745 mmHg 60%
19:00 +27°C° 0 mm 3 m/s 745 mmHg 67%
20:00 +26°C° 0 mm 2 m/s 745 mmHg 74%
21:00 +25°C° 0 mm 2 m/s 745 mmHg 76%
22:00 +24°C° 0 mm 2 m/s 745 mmHg 78%
23:00 +23°C° 0 mm 2 m/s 745 mmHg 81%
Voir plus

Nous avons besoin de votre consentement

Meteoprog et ses fournisseurs de services peuvent stocker et accéder à des données personnelles telles que des cookies, des identifiants d'appareils ou d'autres technologies similaires sur votre appareil et traiter ces données pour personnaliser le contenu et les publicités, ainsi que pour fournir des fonctionnalités de médias sociaux et analyser le trafic.

  • Stocker et/ou accéder à des informations sur votre appareil

    Des cookies, des identifiants d'appareils ou d'autres informations peuvent être stockés ou accessibles sur votre appareil aux fins indiquées ci-dessus.

  • Annonces et contenus personnalisés, mesure des annonces et des contenus, connaissance de l'audience et développement de produits

    Les annonces et le contenu peuvent être personnalisés en fonction d'un profil. D'autres données peuvent être ajoutées pour mieux personnaliser les annonces et le contenu. Les performances des publicités et du contenu peuvent être mesurées. Il est possible d'obtenir des informations sur le public qui a vu les publicités et le contenu. Ces données peuvent être utilisées pour développer ou améliorer l'expérience de l'utilisateur, les systèmes et les logiciels.

En cliquant sur "J'accepte", vous autorisez l'utilisation de cookies, des identifiants d'appareils, des balises web ou d'autres technologies similaires. Vos paramètres peuvent être modifiés dans le navigateur de votre appareil.

Dans certains cas, des intérêts légitimes peuvent être invoqués plutôt qu'un consentement. Vous pouvez en savoir plus à ce sujet dans notre Politique de confidentialité et de cookies.